TimePST,TemperatureF,Dew PointF,Humidity,Sea Level PressureIn,VisibilityMPH,Wind Direction,Wind SpeedMPH,Gust SpeedMPH,PrecipitationIn,Events,Conditions,WindDirDegrees,DateUTC
12:53 AM,46.9,45.0,93,29.63,10.0,ENE,11.5,-,N/A,,Overcast,60,2012-11-29 08:53:00
1:53 AM,48.0,45.0,89,29.61,10.0,NE,15.0,20.7,0.00,,Overcast,50,2012-11-29 09:53:00
2:53 AM,48.9,46.0,90,29.59,10.0,ENE,13.8,-,0.00,Rain,Light Rain,60,2012-11-29 10:53:00
3:53 AM,50.0,46.0,86,29.54,10.0,ENE,12.7,-,0.00,Rain,Light Rain,70,2012-11-29 11:53:00
4:53 AM,50.0,46.0,86,29.51,10.0,ENE,12.7,-,0.01,Rain,Light Rain,60,2012-11-29 12:53:00
5:53 AM,48.9,46.0,90,29.49,10.0,ENE,11.5,-,0.03,Rain,Light Rain,60,2012-11-29 13:53:00
6:53 AM,50.0,46.9,89,29.50,8.0,ENE,9.2,-,0.03,Rain,Light Rain,70,2012-11-29 14:53:00
7:53 AM,48.9,46.9,93,29.53,5.0,East,10.4,-,0.05,Rain,Light Rain,90,2012-11-29 15:53:00
8:53 AM,51.1,46.0,83,29.54,8.0,SE,17.3,25.3,0.02,Rain,Light Rain,130,2012-11-29 16:53:00
9:47 AM,50.0,48.2,94,29.55,2.0,SE,13.8,-,0.03,Rain,Light Rain,140,2012-11-29 17:47:00
9:53 AM,50.0,48.0,93,29.57,2.5,SE,12.7,-,0.04,Rain,Light Rain,140,2012-11-29 17:53:00
10:14 AM,50.0,48.2,94,29.56,4.0,ESE,9.2,-,0.01,Rain,Light Rain,110,2012-11-29 18:14:00
10:53 AM,50.0,48.0,93,29.57,3.0,East,9.2,-,0.02,Rain,Light Rain,90,2012-11-29 18:53:00
11:01 AM,50.0,48.2,94,29.56,2.0,East,8.1,-,0.01,Rain,Light Rain,100,2012-11-29 19:01:00
11:53 AM,48.9,48.0,97,29.57,1.2,East,9.2,-,0.07,Rain,Rain,90,2012-11-29 19:53:00
12:06 PM,50.0,48.2,94,29.56,3.0,East,6.9,-,0.02,Rain,Light Rain,90,2012-11-29 20:06:00
12:53 PM,50.0,48.9,96,29.57,3.0,East,8.1,-,0.03,Rain,Light Rain,80,2012-11-29 20:53:00
1:53 PM,51.1,48.9,92,29.54,4.0,ENE,8.1,-,0.01,Rain,Light Rain,70,2012-11-29 21:53:00
2:53 PM,51.1,50.0,96,29.53,10.0,ENE,6.9,-,0.01,,Overcast,60,2012-11-29 22:53:00
3:23 PM,51.8,48.2,88,29.51,10.0,ENE,9.2,-,N/A,,Overcast,70,2012-11-29 23:23:00
3:53 PM,51.1,48.9,92,29.51,10.0,ENE,9.2,-,N/A,,Overcast,60,2012-11-29 23:53:00
4:43 PM,51.8,48.2,88,29.49,9.0,ENE,10.4,-,0.00,,Overcast,70,2012-11-30 00:43:00
4:53 PM,51.1,48.9,92,29.50,6.0,ENE,8.1,-,0.02,Rain,Light Rain,60,2012-11-30 00:53:00
5:27 PM,50.0,48.2,94,29.48,2.5,NE,8.1,-,0.10,Rain,Rain,40,2012-11-30 01:27:00
5:34 PM,50.0,48.2,94,29.48,5.0,ENE,6.9,-,0.11,Rain,Light Rain,60,2012-11-30 01:34:00
5:53 PM,50.0,48.9,96,29.49,9.0,ENE,6.9,-,0.14,Rain,Light Rain,60,2012-11-30 01:53:00
6:53 PM,50.0,48.0,93,29.47,10.0,ENE,8.1,-,0.00,,Overcast,70,2012-11-30 02:53:00
7:24 PM,50.0,46.4,87,29.44,10.0,ENE,8.1,-,N/A,,Overcast,60,2012-11-30 03:24:00
7:53 PM,50.0,46.9,89,29.46,10.0,ENE,9.2,-,N/A,,Overcast,70,2012-11-30 03:53:00
8:53 PM,50.0,46.9,89,29.45,10.0,ENE,11.5,-,N/A,,Overcast,70,2012-11-30 04:53:00
9:53 PM,50.0,46.0,86,29.43,10.0,ENE,10.4,-,N/A,,Scattered Clouds,60,2012-11-30 05:53:00
10:53 PM,50.0,46.0,86,29.41,10.0,ENE,11.5,-,0.00,Rain,Light Rain,70,2012-11-30 06:53:00
11:53 PM,48.9,46.9,93,29.40,8.0,ENE,8.1,-,0.02,Rain,Light Rain,70,2012-11-30 07:53:00